Home > Time Zones > World Clock > Weather > Iran > Kerman > Past weeks

Flag for Iran Weather past 2 weeks in Kerman, Iran

Now
91 °F

Sunny.


Feels Like: 87 °F
Forecast: 54 / 93 °F
Wind: 9 mph from Northeast

Location: Kerman Airport

Current Time: Sep 21, 2014 at 3:22:20 PM

Latest Report: Sep 21, 2014 at 2:30 PM


Visibility: 10 mi

Pressure: 30.01 "Hg

Humidity: 7%

Dew point: 19 °F

Location of KermanLocation

Historic Weather in Kerman — Graph

°F

Kerman temperature yesterday

Maximum temperature yesterday: 90 °F (at 1:00 PM)
Minimum temperature yesterday: 55 °F (at 4:30 AM)
Average temperature yesterday: 79 °F

Past Weeks' High & Low Weather Summary

 TemperatureHumidityPressure
High95 °F (Sep 7, 4:30 PM)31% (Sep 17, 7:30 AM)30.24 "Hg (Sep 17, 7:30 AM)
Low50 °F (Sep 14, 6:30 AM)3% (Sep 13, 2:00 PM)29.77 "Hg (Sep 16, 6:00 PM)
Average79 °F12%30.06 "Hg
* Reported Sep 6 1:30 PM — Sep 21 2:00 PM, Kerman, Weather by CustomWeather, © 2014

Note: Actual official high and low records may vary slightly from our data, if they occured in-between our weather recording intervals... More about our weather records

Advertising

Kerman weather history for previous 24 hours

 ConditionsComfort  
Time TempWeatherWind HumidityBarometerVisibility
2:00 PM
Sep 21
93 °FSunny.7 mph7%30.04 "Hg10 mi
1:30 PM91 °FSunny.9 mph8%30.04 "Hg10 mi
1:00 PM91 °FSunny.7 mph8%30.07 "Hg10 mi
12:30 PM90 °FSunny.7 mph9%30.07 "Hg10 mi
12:00 PM90 °FSunny.7 mph8%30.09 "Hg10 mi
11:30 AM90 °FSunny.7 mph8%30.09 "Hg10 mi
11:00 AM86 °FSunny.5 mph8%30.12 "Hg10 mi
10:30 AM84 °FSunny.7 mph8%30.12 "Hg10 mi
10:00 AM82 °FSunny.7 mph9%30.12 "Hg10 mi
9:30 AM79 °FSunny.7 mph10%30.12 "Hg10 mi
9:00 AM77 °FSunny.No wind11%30.12 "Hg10 mi
8:30 AM72 °FSunny.No wind13%30.12 "Hg10 mi
8:00 AM61 °FSunny.7 mph16%30.12 "Hg10 mi
7:30 AM61 °FClear.7 mph16%30.12 "Hg10 mi
6:30 AM54 °FClear.7 mph24%30.09 "Hg10 mi
5:30 AM54 °FClear.7 mph24%30.09 "Hg10 mi
4:30 AM57 °FClear.No wind21%30.07 "Hg10 mi
3:30 AM59 °FClear.5 mph20%30.07 "Hg10 mi
2:30 AM59 °FClear.No wind20%30.09 "Hg10 mi
1:30 AM64 °FClear.5 mph16%30.09 "Hg10 mi
12:30 AM68 °FClear.5 mph14%30.09 "Hg10 mi
11:30 PM
Sep 20
70 °FClear.7 mph12%30.12 "Hg10 mi
10:30 PM77 °FClear.9 mph10%30.12 "Hg10 mi
9:30 PM79 °FClear.14 mph10%30.09 "Hg10 mi
6:00 PM86 °FSunny.14 mph6%30.07 "Hg10 mi
5:30 PM88 °FSunny.14 mph7%30.07 "Hg10 mi
5:00 PM88 °FSunny.14 mph6%30.07 "Hg10 mi
4:30 PM90 °FSunny.14 mph6%30.07 "Hg10 mi
4:00 PM90 °FSunny.14 mph6%30.07 "Hg10 mi
3:30 PM90 °FSunny.14 mph6%30.07 "Hg10 mi
3:00 PM90 °FSunny.12 mph6%30.07 "Hg10 mi
Weather by CustomWeather, © 2014

See weather overviewHow to use our weather pages